This demonstration page uses our WeatherBlox Daily Observations layout. Learn more.

38.88101, -77.10428

Hourly Observations for January 28, 2016

Temp ( °F °C ) Dew Point ( °F °C ) Humidity (%) Winds ( mph kmh ) Pressure ( in mb ) Visibility ( mi km ) Precip ( " mm )
12:52 am 00:52 Partly Cloudy 30 -1.1 22 -5.6 72 72 Calm 30.16 1021 10 16.0934 0 0
1:52 am 01:52 Partly Cloudy 28 -2.2 23 -5 81 81 SSW 3 6 30.15 1021 10 16.0934 0 0
2:52 am 02:52 Partly Cloudy 28 -2.2 22 -5.6 78 78 Calm 30.13 1020 10 16.0934 0 0
3:52 am 03:52 Mostly Cloudy 25 -3.9 21 -6.1 85 85 Calm 30.09 1019 10 16.0934 0 0
4:52 am 04:52 Clear 26 -3.3 22 -5.6 84 84 Calm 30.08 1019 10 16.0934 0 0
5:52 am 05:52 Partly Cloudy 26 -3.3 22 -5.6 84 84 Calm 30.06 1018 10 16.0934 0 0
6:52 am 06:52 Partly Cloudy 26 -3.3 22 -5.6 84 84 S 3 6 30.05 1018 10 16.0934 0 0
7:52 am 07:52 Partly Cloudy 26 -3.3 23 -5 88 88 S 3 6 30.04 1017 9 14.48406 0 0
8:52 am 08:52 Mostly Cloudy 28 -2.2 24 -4.4 85 85 Calm 30.04 1017 10 16.0934 0 0
9:52 am 09:52 Partly Cloudy 31 -0.6 23 -5 72 72 S 5 7 30.03 1017 10 16.0934 0 0
10:52 am 10:52 Partly Cloudy 34 1.1 25 -3.9 70 70 S 7 11 30.01 1016 10 16.0934 0 0
11:52 am 11:52 Mostly Cloudy 37 2.8 24 -4.4 59 59 S 8 13 29.95 1014 10 16.0934 0 0
12:52 pm 12:52 Mostly Cloudy 39 3.9 24 -4.4 55 55 SSW 7 11 29.91 1013 10 16.0934 0 0
1:52 pm 13:52 Cloudy 39 3.9 26 -3.3 60 60 S 10 17 29.87 1011 10 16.0934 0 0
2:52 pm 14:52 Cloudy 39 3.9 26 -3.3 60 60 S 9 15 29.85 1011 10 16.0934 0 0
3:52 pm 15:52 Cloudy 39 3.9 26 -3.3 60 60 S 9 15 29.81 1010 10 16.0934 0 0
4:52 pm 16:52 Mostly Cloudy 39 3.9 26 -3.3 60 60 S 7 11 29.8 1009 10 16.0934 0 0
5:52 pm 17:52 Mostly Cloudy 37 2.8 27 -2.8 67 67 SSE 3 6 29.78 1009 10 16.0934 0 0
6:52 pm 18:52 Mostly Cloudy 37 2.8 26 -3.3 65 65 S 3 6 29.77 1008 10 16.0934 0 0
7:52 pm 19:52 Cloudy 37 2.8 26 -3.3 65 65 S 7 11 29.75 1008 10 16.0934 0 0
8:52 pm 20:52 Cloudy 36 2.2 26 -3.3 67 67 S 6 9 29.72 1007 10 16.0934 0 0
9:52 pm 21:52 Cloudy 37 2.8 26 -3.3 65 65 Calm 29.71 1006 10 16.0934 0 0
10:52 pm 22:52 Cloudy 36 2.2 27 -2.8 70 70 S 5 7 29.71 1006 10 16.0934 0 0
11:52 pm 23:52 Cloudy 36 2.2 26 -3.3 67 67 Calm 29.67 1005 10 16.0934 0 0

Powered by AerisWeather